Aeroporto :
LOGIN :

Iscrizione | Disclaimer

   EN    FR    IT 

 










Sommario :    VFR   VFR Marginale   IFR   IFR Intensivo   IFR Molto Intensivo
Visibilità : 
Base nubi : 
>= 8 km
>= 3000ft
5 / 8 km
1000 / 3000 ft
1500m / 5 km
500 / 1000 ft
800 / 1500m
200 / 500 ft
< 800m
< 200 ft
Simboli :   Temporali  Nebbia  Neve Forte  Precipitazioni Forti  Vento > 20 kt
SIGMETs :   Varie  Temporali  Ghiacco  Turbolenza  Onda orograficha  Ceneri Vulcaniche






- Altitudine del aeroporto : 446 ft
- Codice IATA : VNE


LFRV - Vannes-Meucon

ULTIMO METAR :
  • 191800Z AUTO 02003KT 9999 ///TCU 20/18 Q1012

METARs OBSOLETI :
  • 191730Z AUTO 36003KT 9999 ///TCU 21/18 Q1011
  • 191700Z AUTO 02003KT 340V050 9999 FEW020/// SCT100/// OVC120/// ///CB 22/17 Q1011
  • 191630Z AUTO 04003KT 360V090 9999 FEW022/// OVC100/// ///TCU 22/17 Q1011
  • 191600Z AUTO VRB03KT 9999 FEW042 BKN110 22/17 Q1011
  • 191530Z AUTO VRB02KT 9999 FEW022 OVC098 22/16 Q1011

TAF N/A



MetMap, La meteo Aeronautica in un colpo d'occhio ! - Copyright ORBIFLY Dicembre 2007 - Disclaimer

ORBIFLY MET'MAP TEAM :

Programmazione e sviluppo : Alexandra Zaïnal
Concezione : Baudouin d'Aumeries
Aiuto per la programmazione : Marc-Olivier Méhu
Supporto tecnico e logistico : Manuel Goepfert
Aiuto per la traduzione : Arnaldo La Scala

Contatto : metmap@orbifly.com




FONTI E CREDITI :

   NOAA